Accueil
METAR-TAF:

METAR-TAF

Aéroports :

Meppen, Allemagne

Base aérienne

latitude: 52-43-24N, longitude: 007-19-35E, altitude: 21 m

Observation

Le bulletin a été fait il y a 1 heure et 1 minutes, à 09:20 UTC
Vent 4 kt de est
Température 0°C
Humidité 80%
Pression 1027 hPa
Visibilité 10 km ou plus
Quelques nuages à une hauteur de 4200 ft
Nuages fragmentés à une hauteur de 5100 ft

METAR: ETWM 220920Z 08004KT 9999 FEW042 BKN051 00/M03 Q1027 BLU

Heure: 11:21 (10:21 UTC)


TAF: absent

Observations et prévisions météorologiques de plus de 4000 aéroports (messages METAR et TAF).

Les stations disponibles sont représentées par des disques jaunes et rouges sur la carte.

Passer la souris dessus pour voir le nom de la station.

Cliquer dessus pour voir les observations et prévisions météorologiques.

Pour changer de carte: cliquez sur les boutons verts avec une croix noire pour zoomer, sur le bouton vert avec un tiret pour effectuer un zoom arrière, ou sur les flèches vertes pour les cartes adjacentes.


METAR-TAF: